User: anonymous   Login
Location: Anglesey
(53.1800°N, 4.2200°W)
Time: 07:12:58
(UTC+00:00)
Language:

Tiangong 2 - Orbit

View from above orbital plane
View from above orbital plane
View from above satellite
View from above satellite

Ground track
Ground track

The orbit data is extracted from the following two-line orbital elements,

1 41765U 16057A   18051.84555699  .00005369  00000-0  68049-4 0  9992
2 41765  42.7851 316.3693 0003095 192.2973 255.6896 15.60425058 81807
Epoch (UTC): 20 February 2018 20:17:36
Eccentricity: 0.0003095
inclination: 42.7851°
perigee height: 384 km
apogee height: 388 km
right ascension of ascending node: 316.3693°
argument of perigee: 192.2973°
revolutions per day: 15.60425058
mean anomaly at epoch: 255.6896°
orbit number at epoch: 8180

The dashed part of the orbit path shows where the satellite is in the earth's shadow,  

DLR